| time (UTC) | temp C | wind direction | speed KPH | gust KPH | rain 1hr cm | rain 24hr cm | rain mn cm | humidity % | barometer mb |
| 20260508144620 | 17 | 103 | 0.0 | 6.4 | 0.00 | 0.79 | 0.03 | 57 | 1018.4 |
| 20260508143110 | 16 | 0 | 3.2 | 11.3 | 0.00 | 0.79 | 0.03 | 60 | 1018.4 |
| 20260508141607 | 16 | 140 | 1.6 | 6.4 | 0.00 | 0.79 | 0.03 | 60 | 1018.2 |
| 20260508140057 | 15 | 97 | 3.2 | 8.0 | 0.00 | 0.79 | 0.03 | 59 | 1018.2 |
| 20260508134557 | 14 | 297 | 3.2 | 6.4 | 0.00 | 0.79 | 0.03 | 70 | 1018.2 |
| 20260508133116 | 14 | 0 | 0.0 | 4.8 | 0.00 | 0.79 | 0.03 | 72 | 1018.1 |
| 20260508131550 | 13 | 209 | 3.2 | 6.4 | 0.00 | 0.79 | 0.03 | 77 | 1018.1 |
| 20260508130057 | 13 | 207 | 3.2 | 6.4 | 0.00 | 0.79 | 0.03 | 79 | 1017.9 |
| 20260508124558 | 13 | 221 | 1.6 | 4.8 | 0.00 | 1.14 | 0.03 | 79 | 1018.0 |
| 20260508123102 | 12 | 199 | 1.6 | 6.4 | 0.00 | 1.14 | 0.03 | 82 | 1017.8 |
| 20260508121602 | 11 | 0 | 0.0 | 0.0 | 0.00 | 1.14 | 0.03 | 78 | 1017.7 |
| 20260508120054 | 11 | 0 | 0.0 | 0.0 | 0.00 | 1.14 | 0.03 | 79 | 1017.5 |
| 20260508114552 | 9 | 0 | 0.0 | 1.6 | 0.00 | 1.30 | 0.03 | 86 | 1017.3 |
| 20260508113107 | 8 | 26 | 1.6 | 3.2 | 0.00 | 1.30 | 0.03 | 86 | 1017.1 |
| 20260508111605 | 8 | 49 | 0.0 | 3.2 | 0.00 | 1.30 | 0.03 | 86 | 1016.9 |
| 20260508110100 | 7 | 357 | 0.0 | 3.2 | 0.03 | 1.30 | 0.03 | 90 | 1016.7 |
| 20260508104556 | 6 | 25 | 0.0 | 3.2 | 0.03 | 1.30 | 0.03 | 92 | 1016.5 |
| 20260508103058 | 6 | 41 | 1.6 | 8.0 | 0.03 | 1.30 | 0.03 | 92 | 1016.2 |
| 20260508101600 | 6 | 29 | 1.6 | 3.2 | 0.03 | 1.30 | 0.03 | 93 | 1015.9 |
| 20260508100056 | 6 | 356 | 0.0 | 1.6 | 0.00 | 1.27 | 0.00 | 93 | 1015.9 |
| 20260508094558 | 6 | 0 | 0.0 | 0.0 | 0.00 | 1.27 | 0.00 | 92 | 1015.7 |
| 20260508093058 | 7 | 0 | 0.0 | 0.0 | 0.00 | 1.27 | 0.00 | 90 | 1015.5 |
| 20260508091609 | 7 | 357 | 0.0 | 3.2 | 0.00 | 1.27 | 0.00 | 89 | 1015.5 |
| 20260508090111 | 8 | 344 | 1.6 | 3.2 | 0.00 | 1.27 | 0.00 | 88 | 1015.3 |
| 20260508084601 | 8 | 17 | 1.6 | 4.8 | 0.00 | 1.27 | 0.00 | 90 | 1015.4 |
| 20260508083055 | 7 | 24 | 1.6 | 1.6 | 0.00 | 1.27 | 0.00 | 91 | 1015.3 |
| 20260508081603 | 7 | 0 | 0.0 | 1.6 | 0.00 | 1.27 | 0.00 | 91 | 1015.2 |
| 20260508080054 | 7 | 0 | 0.0 | 0.0 | 0.00 | 1.27 | 0.00 | 91 | 1015.2 |
| 20260508074555 | 8 | 0 | 0.0 | 1.6 | 0.00 | 1.30 | 0.00 | 91 | 1014.9 |
| 20260508073102 | 8 | 40 | 0.0 | 0.0 | 0.00 | 1.30 | 0.00 | 89 | 1014.9 |
| 20260508071603 | 8 | 0 | 0.0 | 3.2 | 0.00 | 1.30 | 0.00 | 89 | 1014.9 |
| 20260508070050 | 8 | 0 | 0.0 | 1.6 | 0.00 | 1.30 | 0.00 | 89 | 1014.8 |
| 20260508064549 | 9 | 34 | 1.6 | 3.2 | 0.00 | 1.30 | 0.00 | 87 | 1014.7 |
| 20260508063050 | 10 | 301 | 1.6 | 4.8 | 0.00 | 1.30 | 0.00 | 83 | 1014.6 |
| 20260508061552 | 10 | 292 | 1.6 | 4.8 | 0.00 | 1.30 | 0.00 | 86 | 1014.6 |
| 20260508060052 | 8 | 0 | 0.0 | 3.2 | 0.00 | 1.30 | 0.00 | 94 | 1014.7 |
| 20260508054553 | 8 | 0 | 0.0 | 0.0 | 0.00 | 1.32 | 0.00 | 94 | 1014.6 |
| 20260508053115 | 8 | 0 | 0.0 | 0.0 | 0.00 | 1.32 | 0.00 | 94 | 1014.7 |
| 20260508051554 | 8 | 0 | 0.0 | 0.0 | 0.00 | 1.32 | 0.00 | 93 | 1014.5 |
| 20260508050057 | 8 | 0 | 0.0 | 0.0 | 0.00 | 1.32 | 0.00 | 93 | 1014.4 |
| 20260508044556 | 8 | 0 | 0.0 | 0.0 | 0.00 | 1.37 | 0.00 | 93 | 1014.3 |
| 20260508043051 | 9 | 0 | 0.0 | 3.2 | 0.00 | 1.37 | 0.00 | 92 | 1014.3 |
| 20260508041611 | 9 | 0 | 0.0 | 1.6 | 0.00 | 1.37 | 0.00 | 92 | 1014.2 |
| 20260508040110 | 10 | 0 | 0.0 | 1.6 | 0.00 | 1.37 | 0.00 | 92 | 1014.3 |
| 20260508034552 | 10 | 137 | 0.0 | 1.6 | 0.00 | 1.40 | 1.37 | 91 | 1014.3 |
| 20260508033052 | 10 | 217 | 1.6 | 6.4 | 0.00 | 1.40 | 1.37 | 89 | 1014.1 |
| 20260508031551 | 11 | 0 | 0.0 | 0.0 | 0.00 | 1.40 | 1.37 | 88 | 1014.1 |
| 20260508030053 | 10 | 0 | 0.0 | 1.6 | 0.00 | 1.40 | 1.37 | 88 | 1014.0 |
| 20260508024604 | 10 | 0 | 0.0 | 0.0 | 0.00 | 1.47 | 1.37 | 88 | 1013.7 |
| 20260508023052 | 11 | 0 | 0.0 | 0.0 | 0.00 | 1.47 | 1.37 | 87 | 1013.7 |
| 20260508021552 | 12 | 0 | 0.0 | 3.2 | 0.00 | 1.47 | 1.37 | 83 | 1013.5 |
| 20260508020054 | 13 | 0 | 0.0 | 0.0 | 0.00 | 1.47 | 1.37 | 77 | 1013.2 |
| 20260508014551 | 13 | 359 | 0.0 | 3.2 | 0.00 | 1.57 | 1.37 | 73 | 1012.9 |
| 20260508013052 | 14 | 44 | 0.0 | 6.4 | 0.00 | 1.57 | 1.37 | 71 | 1012.5 |
| 20260508011556 | 14 | 0 | 0.0 | 3.2 | 0.00 | 1.57 | 1.37 | 73 | 1012.3 |
| 20260508010052 | 15 | 307 | 3.2 | 9.7 | 0.00 | 1.57 | 1.37 | 70 | 1012.0 |
| 20260508004558 | 15 | 302 | 6.4 | 11.3 | 0.00 | 1.70 | 1.37 | 68 | 1011.8 |
| 20260508003104 | 16 | 281 | 8.0 | 16.1 | 0.00 | 1.70 | 1.37 | 67 | 1011.7 |
| 20260508001557 | 16 | 317 | 6.4 | 19.3 | 0.00 | 1.70 | 1.37 | 67 | 1011.4 |
| 20260508000056 | 16 | 302 | 6.4 | 14.5 | 0.00 | 1.70 | 1.37 | 76 | 1011.4 |
| 20260507234554 | 16 | 11 | 6.4 | 12.9 | 0.00 | 1.73 | 1.37 | 81 | 1011.3 |
| 20260507233102 | 16 | 63 | 6.4 | 12.9 | 0.00 | 1.73 | 1.37 | 88 | 1011.1 |
| 20260507231554 | 16 | 68 | 8.0 | 14.5 | 0.00 | 1.73 | 1.37 | 88 | 1011.0 |
| 20260507230054 | 16 | 78 | 3.2 | 9.7 | 0.00 | 1.73 | 1.37 | 87 | 1010.7 |
| 20260507224557 | 16 | 53 | 3.2 | 12.9 | 0.00 | 1.73 | 1.37 | 87 | 1010.2 |
| 20260507223056 | 16 | 79 | 6.4 | 17.7 | 0.00 | 1.73 | 1.37 | 86 | 1009.9 |
| 20260507221553 | 16 | 51 | 9.7 | 17.7 | 0.00 | 1.73 | 1.37 | 86 | 1009.8 |
| 20260507220055 | 16 | 56 | 8.0 | 16.1 | 0.00 | 1.73 | 1.37 | 87 | 1009.4 |
| 20260507214607 | 16 | 20 | 11.3 | 20.9 | 0.00 | 1.73 | 1.37 | 88 | 1009.4 |
| 20260507213105 | 16 | 58 | 12.9 | 24.1 | 0.00 | 1.73 | 1.37 | 88 | 1009.2 |
| 20260507211556 | 15 | 60 | 11.3 | 24.1 | 0.00 | 1.73 | 1.37 | 90 | 1009.5 |
| 20260507204554 | 15 | 99 | 12.9 | 24.1 | 0.00 | 1.73 | 1.37 | 92 | 1009.2 |
| 20260507203052 | 15 | 49 | 11.3 | 25.7 | 0.00 | 1.73 | 1.37 | 92 | 1009.0 |
| 20260507201557 | 16 | 67 | 12.9 | 27.4 | 0.46 | 1.73 | 1.37 | 91 | 1008.7 |
| 20260507200055 | 16 | 347 | 16.1 | 27.4 | 0.76 | 1.73 | 1.37 | 92 | 1008.7 |
| 20260507194618 | 16 | 23 | 16.1 | 29.0 | 0.76 | 1.73 | 1.37 | 92 | 1008.8 |
| 20260507193052 | 16 | 34 | 12.9 | 29.0 | 0.76 | 1.73 | 1.37 | 91 | 1008.7 |
| 20260507191552 | 19 | 46 | 11.3 | 22.5 | 0.28 | 1.24 | 0.89 | 85 | 1008.6 |
| 20260507190054 | 23 | 195 | 4.8 | 12.9 | 0.00 | 0.97 | 0.61 | 71 | 1007.9 |
| 20260507184555 | 24 | 143 | 3.2 | 12.9 | 0.00 | 0.97 | 0.61 | 70 | 1007.7 |
| 20260507183102 | 23 | 256 | 6.4 | 14.5 | 0.00 | 0.97 | 0.61 | 72 | 1007.9 |
| 20260507181558 | 23 | 210 | 9.7 | 14.5 | 0.00 | 0.97 | 0.61 | 74 | 1008.1 |
| 20260507180101 | 22 | 199 | 6.4 | 14.5 | 0.00 | 0.97 | 0.61 | 75 | 1008.3 |
| 20260507174602 | 22 | 243 | 6.4 | 12.9 | 0.00 | 0.97 | 0.61 | 76 | 1008.5 |
| 20260507173137 | 22 | 116 | 4.8 | 12.9 | 0.00 | 0.97 | 0.61 | 76 | 1008.6 |
| 20260507171611 | 22 | 209 | 3.2 | 9.7 | 0.00 | 0.97 | 0.61 | 76 | 1008.6 |
| 20260507170116 | 22 | 153 | 3.2 | 9.7 | 0.00 | 0.97 | 0.61 | 81 | 1009.0 |
| 20260507164558 | 20 | 244 | 3.2 | 8.0 | 0.00 | 1.02 | 0.61 | 84 | 1009.2 |
| 20260507163055 | 20 | 265 | 1.6 | 8.0 | 0.00 | 1.02 | 0.61 | 82 | 1009.4 |
| 20260507161606 | 20 | 261 | 4.8 | 9.7 | 0.00 | 1.02 | 0.61 | 86 | 1009.5 |
| 20260507160057 | 20 | 0 | 0.0 | 4.8 | 0.00 | 1.02 | 0.61 | 88 | 1009.2 |
| 20260507154554 | 20 | 169 | 1.6 | 4.8 | 0.00 | 1.04 | 0.61 | 87 | 1008.9 |
| 20260507153059 | 18 | 167 | 1.6 | 4.8 | 0.00 | 1.04 | 0.61 | 93 | 1009.2 |
| 20260507151601 | 17 | 178 | 3.2 | 6.4 | 0.00 | 1.04 | 0.61 | 95 | 1009.7 |